Home   Weather   St. Peter Port   Past weeks

Flag for Guernsey Past Weather in St. Peter Port, Guernsey — Yesterday and Last 2 Weeks

Now
59 °F

Passing clouds.


Feels Like: 58 °F
Forecast: 59 / 63 °F
Wind: 8 mph from Southwest

Location: Jersey Airport

Current Time: Sep 29, 2016 at 1:07:02 AM

Latest Report: Sep 28, 2016 at 9:50 PM


Visibility: N/A

Pressure: 30.27 "Hg

Humidity: 94%

Dew Point: 57 °F

Location of St. Peter PortLocation

Past Weather in St. Peter Port — Graph

°F

St. Peter Port Temperature Yesterday

Maximum temperature yesterday: 63 °F (at 12:20 PM)
Minimum temperature yesterday: 55 °F (at 8:20 PM)
Average temperature yesterday: 60 °F

High & Low Weather Summary for the Past Weeks

 TemperatureHumidityPressure
High72 °F (Sep 14, 4:50 PM)100% (Sep 14, 5:20 AM)30.39 "Hg (Sep 14, 5:20 AM)
Low54 °F (Sep 23, 5:20 AM)52% (Sep 23, 12:20 PM)29.68 "Hg (Sep 13, 9:20 PM)
Average62 °F85%30.10 "Hg
* Reported Sep 13 9:20 PM — Sep 28 9:50 PM, St. Peter Port, Weather by CustomWeather, © 2016

Note: Actual official high and low records may vary slightly from our data, if they occured in-between our weather recording intervals... More about our weather records

Advertising

St. Peter Port Weather History for the Previous 24 Hours

Scroll right to see more
 ConditionsComfort  
Time TempWeatherWind HumidityBarometerVisibility
9:50 PM
Wed, Sep 28
59 °FPassing clouds.8 mph94%30.27 "HgN/A
9:20 PM57 °FPassing clouds.8 mph100%30.27 "HgN/A
8:50 PM57 °FPassing clouds.7 mph100%30.27 "HgN/A
8:20 PM55 °FPassing clouds.8 mph100%30.30 "HgN/A
7:50 PM57 °FPassing clouds.7 mph100%30.30 "HgN/A
7:20 PM57 °FPassing clouds.9 mph100%30.30 "HgN/A
6:50 PM59 °FPassing clouds.9 mph94%30.30 "HgN/A
6:20 PM59 °FPassing clouds.9 mph100%30.33 "HgN/A
5:50 PM61 °FPassing clouds.9 mph94%30.33 "HgN/A
5:20 PM61 °FPassing clouds.9 mph94%30.33 "HgN/A
4:50 PM63 °FPassing clouds.10 mph88%30.33 "HgN/A
4:20 PM63 °FPassing clouds.12 mph88%30.33 "HgN/A
3:50 PM63 °FPassing clouds.13 mph83%30.33 "HgN/A
3:20 PM63 °FPassing clouds.8 mph83%30.36 "HgN/A
2:50 PM63 °FPassing clouds.13 mph83%30.36 "HgN/A
2:20 PM63 °FPassing clouds.10 mph83%30.36 "HgN/A
1:50 PM63 °FPassing clouds.13 mph83%30.36 "HgN/A
1:20 PM63 °FPassing clouds.9 mph83%30.36 "HgN/A
12:50 PM63 °FPassing clouds.14 mph83%30.39 "HgN/A
12:20 PM63 °FPassing clouds.12 mph83%30.39 "HgN/A
11:50 AM61 °FScattered clouds.14 mph88%30.39 "HgN/A
11:20 AM61 °FPartly sunny.13 mph88%30.39 "HgN/A
10:50 AM61 °FPartly sunny.12 mph88%30.39 "HgN/A
10:20 AM61 °FPartly sunny.13 mph88%30.39 "HgN/A
9:50 AM59 °FPartly sunny.12 mph94%30.39 "HgN/A
9:20 AM61 °FScattered clouds.13 mph88%30.39 "HgN/A
8:50 AM59 °FScattered clouds.13 mph94%30.36 "HgN/A
8:20 AM59 °FScattered clouds.10 mph94%30.36 "HgN/A
7:50 AM57 °FScattered clouds.8 mph94%30.36 "HgN/A
7:20 AM57 °FScattered clouds.13 mph94%30.36 "HgN/A
6:50 AM57 °FPassing clouds.12 mph94%30.36 "HgN/A
6:20 AM57 °FPassing clouds.13 mph94%30.36 "HgN/A
5:50 AM57 °FPassing clouds.12 mph94%30.36 "HgN/A
5:20 AM57 °FPassing clouds.10 mph94%30.36 "HgN/A
4:50 AM57 °FPassing clouds.9 mph94%30.36 "HgN/A
4:20 AM57 °FPassing clouds.15 mph94%30.36 "HgN/A
3:50 AM57 °FPassing clouds.12 mph94%30.36 "HgN/A
Weather by CustomWeather, © 2016

See weather overviewHow to use our weather pages